Location: Coffee Ditch
(40.9640°N, 122.7500°W)
Time: 15:05:43
(UTC+00:00)

CENTAUR R/B - Pass Details

Date: 08 September 2024
Orbit: 661 x 1523 km, 63.4° (Epoch: 07 October)

Event Time Altitude Azimuth Distance (km) Brightness Sun altitude
Exits shadow 12:51:51 11° 229° (SW) 2,308 3.9 -10.7°
Maximum altitude 12:57:05 62° 310° (NW) 1,034 2.5 -9.7°
Drops below altitude 10° 13:03:50 10° 30° (NNE) 2,943 5.7 -8.5°
Sets 13:06:52 0° 34° (NE) 4,047 6.6 -8.0°
